CW0609 Weather Reports


time (UTC)temp
C
wind
direction
speed
KPH
gust
KPH
rain 1hr
cm
rain 24hr
cm
rain mn
cm
humidity
%
barometer
mb
20260502163101 12 0 0.0 0.0 0.00 0.00 0.00 52 1014.1
20260502161605 12 0 0.0 0.0 0.00 0.00 0.00 55 1014.1
20260502160106 12 0 0.0 0.0 0.00 0.00 0.00 57 1014.1
20260502151610 12 0 0.0 0.0 0.00 0.00 0.00 61 1014.5
20260502150131 12 0 0.0 0.0 0.00 0.00 0.00 65 1014.1
20260502130107 11 0 0.0 0.0 0.00 0.00 0.00 75 1013.7
20260502123057 11 0 0.0 0.0 0.00 0.00 0.00 80 1013.5
20260502121601 10 0 0.0 0.0 0.00 0.00 0.00 82 1013.3
20260502120114 10 0 0.0 0.0 0.00 0.00 0.00 87 1013.0
20260502114612 9 0 0.0 0.0 0.00 0.00 0.00 88 1013.1
20260502113114 9 0 0.0 0.0 0.00 0.00 0.00 89 1013.2
20260502111604 8 0 0.0 0.0 0.00 0.00 0.00 89 1013.0
20260502110104 8 0 0.0 0.0 0.00 0.00 0.00 89 1013.1
20260502104556 8 0 0.0 0.0 0.00 0.00 0.00 89 1013.2
20260502103112 8 0 0.0 0.0 0.00 0.00 0.00 89 1013.0
20260502101606 8 0 0.0 0.0 0.00 0.00 0.00 89 1012.8
20260502090109 8 0 0.0 0.0 0.00 0.00 0.00 88 1012.3
20260502064555 10 0 0.0 0.0 0.00 0.00 0.00 84 1012.1
20260502063121 10 0 0.0 0.0 0.00 0.00 0.00 83 1012.0
20260502061555 10 0 0.0 0.0 0.00 0.00 0.00 82 1011.9
20260502054615 10 0 0.0 0.0 0.00 0.00 0.00 81 1012.2
20260502053101 11 0 0.0 0.0 0.00 0.00 0.00 80 1012.4
20260502051554 11 0 0.0 0.0 0.00 0.00 0.00 80 1012.4
20260502050054 11 0 0.0 0.0 0.00 0.00 0.00 79 1012.6
20260502044552 11 0 0.0 0.0 0.00 0.00 0.00 78 1012.8
20260502043104 11 0 0.0 3.2 0.00 0.00 0.00 78 1012.8
20260502041556 11 0 0.0 3.2 0.00 0.00 0.00 77 1012.9
20260502040055 12 0 0.0 3.2 0.00 0.00 0.00 76 1012.7
20260502034557 12 167 0.0 3.2 0.00 0.00 0.00 76 1012.7
20260502033054 12 0 0.0 3.2 0.00 0.00 0.00 75 1012.7
20260502031555 12 134 0.0 6.4 0.00 0.00 0.00 74 1012.5
20260502030106 12 0 0.0 4.8 0.00 0.00 0.00 73 1012.4
20260502024554 12 0 3.2 8.0 0.00 0.00 0.00 72 1012.3
20260502023057 13 188 0.0 3.2 0.00 0.00 0.00 71 1012.5
20260502021557 13 0 0.0 3.2 0.00 0.00 0.00 70 1012.6
20260502020054 13 127 0.0 3.2 0.00 0.00 0.00 69 1012.5
20260502014555 13 0 0.0 3.2 0.00 0.00 0.00 68 1012.5
20260502013057 13 143 0.0 3.2 0.00 0.00 0.00 68 1012.2
20260502011556 13 179 0.0 1.6 0.00 0.00 0.00 67 1012.1
20260502010057 13 0 0.0 0.0 0.00 0.00 0.00 67 1011.9
20260502004552 13 0 0.0 0.0 0.00 0.00 0.00 64 1011.7
20260502003055 14 0 0.0 0.0 0.00 0.00 0.00 61 1011.4
20260502001553 15 0 0.0 0.0 0.00 0.00 0.00 59 1011.4
20260502000057 16 0 0.0 0.0 0.00 0.00 0.00 55 1011.5
20260501234555 16 0 0.0 3.2 0.00 0.00 0.00 52 1011.4
20260501233058 17 0 0.0 1.6 0.00 0.00 0.00 49 1011.3
20260501231551 17 0 0.0 3.2 0.00 0.00 0.00 47 1011.3
20260501230053 17 98 1.6 8.0 0.00 0.00 0.00 45 1011.4
20260501224554 18 250 3.2 14.5 0.00 0.00 0.00 44 1011.4
20260501223059 18 204 0.0 8.0 0.00 0.00 0.00 44 1011.5
20260501221553 18 0 1.6 8.0 0.00 0.00 0.00 44 1011.7
20260501220054 18 129 0.0 3.2 0.00 0.00 0.00 40 1011.7
20260501214557 18 0 0.0 12.9 0.00 0.00 0.00 39 1011.5
20260501213105 18 264 3.2 6.4 0.00 0.00 0.00 40 1011.5
20260501211604 18 170 1.6 11.3 0.00 0.00 0.00 40 1011.4
20260501210055 19 158 3.2 16.1 0.00 0.00 0.00 41 1011.5
20260501204607 19 132 3.2 9.7 0.00 0.00 0.00 38 1011.6
20260501203106 20 193 3.2 8.0 0.00 0.00 0.00 39 1011.8
20260501201552 20 126 3.2 11.3 0.00 0.00 0.00 40 1011.9
20260501200052 20 122 3.2 8.0 0.00 0.00 0.00 35 1012.2
20260501194555 21 276 1.6 3.2 0.00 0.00 0.00 37 1012.4
20260501193053 20 345 1.6 8.0 0.00 0.00 0.00 37 1012.5
20260501191553 20 312 1.6 6.4 0.00 0.00 0.00 38 1012.9
20260501190055 20 170 1.6 8.0 0.00 0.00 0.00 35 1013.4
20260501184554 19 153 3.2 11.3 0.00 0.00 0.00 37 1013.6
20260501183056 20 51 1.6 8.0 0.00 0.00 0.00 40 1013.8
20260501181621 19 162 1.6 8.0 0.00 0.00 0.00 39 1013.8
20260501174555 18 239 1.6 9.7 0.00 0.00 0.00 37 1014.3
20260501173057 18 0 1.6 6.4 0.00 0.00 0.00 39 1014.3